This is the latest recevied weather packets stored in our database for station/object K1BES. If no packets are shown the sender has not sent any weather packets the latest 10 day(s).
| Time | Temp. | Humidity | Pressure | Rain* | Wind** | Luminosity | Snow |
|---|---|---|---|---|---|---|---|
| 1788520648 | 26.11° C | 97% | 1016.7 hPa | 0 mm | - | 14 W/m² | - |
| 1788520344 | 26.11° C | 97% | 1016.7 hPa | 0 mm | - | 7 W/m² | - |
| 1788520039 | 26.11° C | 97% | 1016.7 hPa | 0 mm | - | 2 W/m² | - |
| 1788519739 | 26.11° C | 97% | 1016.4 hPa | 0 mm | - | 1 W/m² | - |
| 1788519434 | 26.11° C | 97% | 1016.4 hPa | 0 mm | - | 0 W/m² | - |
| 1788519129 | 26.11° C | 97% | 1016.3 hPa | 0 mm | - | 0 W/m² | - |
| 1788518824 | 26.11° C | 97% | 1016.2 hPa | 6.1 mm | - | 0 W/m² | - |
| 1788518519 | 26.11° C | 97% | 1016.4 hPa | 9.65 mm | - | 0 W/m² | - |
| 1788518216 | 25.56° C | 97% | 1016.5 hPa | 3.56 mm | - | 0 W/m² | - |
| 1788517911 | 25.56° C | 97% | 1016.4 hPa | 3.05 mm | - | 0 W/m² | - |
| 1788517607 | 25.56° C | 97% | 1016.4 hPa | 11.94 mm | - | 0 W/m² | - |
| 1788517301 | 25.56° C | 97% | 1016.4 hPa | 7.87 mm | - | 0 W/m² | - |
| 1788516998 | 25.56° C | 97% | 1016.3 hPa | 0 mm | - | 0 W/m² | - |
| 1788516694 | 25.56° C | 97% | 1016.1 hPa | 0 mm | - | 0 W/m² | - |
| 1788516390 | 25.56° C | 97% | 1016.3 hPa | 0 mm | - | 0 W/m² | - |
| 1788516084 | 25.56° C | 97% | 1016.2 hPa | 0 mm | - | 0 W/m² | - |
| 1788515779 | 26.11° C | 97% | 1015.8 hPa | 0 mm | - | 0 W/m² | - |
| 1788515474 | 26.11° C | 97% | 1015.9 hPa | 0 mm | - | 0 W/m² | - |
| 1788515169 | 26.11° C | 97% | 1015.9 hPa | 0 mm | - | 0 W/m² | - |
| 1788514864 | 26.11° C | 97% | 1015.8 hPa | 0 mm | - | 0 W/m² | - |
| 1788514561 | 26.11° C | 97% | 1015.6 hPa | 0 mm | - | 0 W/m² | - |
| 1788514261 | 26.11° C | 97% | 1015.7 hPa | 0 mm | - | 0 W/m² | - |
| 1788513956 | 26.11° C | 97% | 1015.5 hPa | 0 mm | - | 0 W/m² | - |
| 1788513653 | 26.11° C | 97% | 1015.3 hPa | 0 mm | - | 0 W/m² | - |
| 1788513349 | 26.11° C | 96% | 1015.8 hPa | 0 mm | - | 0 W/m² | - |
* Rain latest hour (hover to see other rain measurements)
** Current wind speed in m/s (hover to see current wind gust speed)